This is the latest recevied weather packets stored in our database for station/object XW7RMR. If no packets are shown the sender has not sent any weather packets the latest 1 day(s).
| Time | Temp. | Humidity | Pressure | Rain* | Wind** | Luminosity | Snow |
|---|---|---|---|---|---|---|---|
| 1778012086 | 16.11° C | 73% | 1015.6 hPa | 0 mm | 0.45 m/s, 353° | 168 W/m² | - |
| 1778011783 | 16.11° C | 73% | 1015.6 hPa | 0 mm | 0 m/s | 187 W/m² | - |
| 1778011481 | 15.56° C | 75% | 1015.5 hPa | 0 mm | 0.45 m/s, 329° | 219 W/m² | - |
| 1778011176 | 15.56° C | 75% | 1015.7 hPa | 0 mm | 0.45 m/s, 30° | 244 W/m² | - |
| 1778010874 | 15.56° C | 75% | 1015.4 hPa | 0 mm | 0 m/s | 277 W/m² | - |
| 1778010571 | 15° C | 76% | 1015.7 hPa | 0 mm | 0.45 m/s, 43° | 282 W/m² | - |
| 1778010268 | 15.56° C | 75% | 1015.6 hPa | 0 mm | 0.45 m/s, 76° | 251 W/m² | - |
| 1778009968 | 15° C | 76% | 1015.6 hPa | 0 mm | 0 m/s | 261 W/m² | - |
| 1778009666 | 15° C | 76% | 1015.7 hPa | 0 mm | 0 m/s | 293 W/m² | - |
| 1778009364 | 15.56° C | 75% | 1015.7 hPa | 0 mm | 0 m/s | 275 W/m² | - |
| 1778009062 | 15.56° C | 75% | 1015.9 hPa | 0 mm | 0.45 m/s, 111° | 219 W/m² | - |
| 1778008759 | 15.56° C | 74% | 1015.7 hPa | 0 mm | 0 m/s | 224 W/m² | - |
| 1778008457 | 15.56° C | 76% | 1015.6 hPa | 0 mm | 0 m/s | 221 W/m² | - |
| 1778008154 | 15° C | 76% | 1015.6 hPa | 0 mm | 0.89 m/s, 98° | 219 W/m² | - |
| 1778007849 | 15° C | 77% | 1015.8 hPa | 0 mm | 0 m/s | 207 W/m² | - |
| 1778007545 | 15° C | 76% | 1015.9 hPa | 0 mm | 0 m/s | 199 W/m² | - |
| 1778007242 | 15° C | 75% | 1015.6 hPa | 0 mm | 0 m/s | 191 W/m² | - |
| 1778006938 | 15.56° C | 75% | 1015.7 hPa | 0 mm | 0 m/s | 199 W/m² | - |
| 1778006635 | 15.56° C | 75% | 1015.8 hPa | 0 mm | 0 m/s | 211 W/m² | - |
| 1778006332 | 15° C | 75% | 1015.6 hPa | 0 mm | 0.45 m/s, 292° | 234 W/m² | - |
| 1778006029 | 15° C | 76% | 1015.7 hPa | 0 mm | 0.45 m/s, 271° | 215 W/m² | - |
| 1778005725 | 15° C | 78% | 1015.7 hPa | 0 mm | 0.45 m/s, 278° | 191 W/m² | - |
| 1778005422 | 15° C | 77% | 1015.6 hPa | 0 mm | 0 m/s | 173 W/m² | - |
| 1778005119 | 15° C | 77% | 1015.6 hPa | 0 mm | 0 m/s | 160 W/m² | - |
| 1778004816 | 14.44° C | 78% | 1015.5 hPa | 0 mm | 0 m/s | 164 W/m² | - |
* Rain latest hour (hover to see other rain measurements)
** Current wind speed in m/s (hover to see current wind gust speed)